FW8328 Weather Reports


time (UTC)temp
C
wind
direction
speed
KPH
gust
KPH
rain 1hr
cm
rain 24hr
cm
rain mn
cm
humidity
%
barometer
mb
20260507144542 10 0 0.0 6.4 0.00 1.30 0.03 71 1008.3
20260507143104 9 252 1.6 6.4 0.00 1.30 0.03 75 1008.1
20260507141604 9 0 0.0 6.4 0.00 1.30 0.03 77 1008.1
20260507140039 8 121 0.0 4.8 0.00 1.30 0.03 81 1008.1
20260507134546 8 242 1.6 6.4 0.00 1.30 0.03 79 1008.2
20260507133045 7 163 0.0 8.0 0.00 1.30 0.03 84 1008.3
20260507131552 7 248 1.6 6.4 0.00 1.30 0.03 90 1008.5
20260507130046 6 247 1.6 4.8 0.00 1.30 0.03 94 1008.4
20260507124546 7 0 0.0 3.2 0.00 1.30 0.03 96 1008.5
20260507123102 7 0 0.0 4.8 0.00 1.30 0.03 96 1008.3
20260507121545 7 0 0.0 4.8 0.00 1.30 0.03 96 1008.3
20260507120045 6 0 0.0 3.2 0.00 1.30 0.03 95 1008.1
20260507114543 6 0 0.0 3.2 0.00 1.30 0.03 96 1008.1
20260507113047 6 0 0.0 3.2 0.00 1.30 0.03 96 1008.1
20260507111546 5 5 0.0 1.6 0.00 1.30 0.03 96 1008.1
20260507110049 4 348 0.0 3.2 0.00 1.30 0.03 95 1008.1
20260507104543 4 297 0.0 4.8 0.00 1.30 0.03 95 1008.3
20260507103040 4 0 0.0 0.0 0.00 1.30 0.03 94 1008.2
20260507101547 4 0 0.0 0.0 0.00 1.30 0.03 94 1007.9
20260507100056 4 0 0.0 0.0 0.00 1.30 0.03 94 1007.9
20260507094547 5 0 0.0 0.0 0.03 1.30 0.03 94 1008.0
20260507093046 5 0 0.0 0.0 0.03 1.30 0.03 94 1008.0
20260507091542 5 0 0.0 0.0 0.03 1.30 0.03 94 1008.1
20260507090056 5 0 0.0 0.0 0.03 1.30 0.03 94 1008.1
20260507084552 5 0 0.0 0.0 0.00 1.27 0.00 94 1008.1
20260507083045 5 0 0.0 0.0 0.00 1.27 0.00 94 1008.0
20260507081554 5 0 0.0 0.0 0.00 1.27 0.00 94 1008.0
20260507080042 6 0 0.0 0.0 0.00 1.27 0.00 94 1008.1
20260507074546 6 0 0.0 0.0 0.00 1.27 0.00 94 1008.1
20260507073048 6 0 0.0 3.2 0.00 1.27 0.00 94 1007.9
20260507071545 6 0 0.0 3.2 0.00 1.27 0.00 94 1007.6
20260507070046 6 0 0.0 3.2 0.00 1.27 0.00 94 1007.5
20260507064617 6 111 0.0 3.2 0.00 1.27 0.00 94 1007.7
20260507063049 6 111 0.0 3.2 0.00 1.27 0.00 94 1007.7
20260507061546 6 111 0.0 3.2 0.00 1.27 0.00 94 1008.0
20260507060108 6 111 1.6 4.8 0.00 1.27 0.00 94 1007.6
20260507054551 6 0 0.0 0.0 0.00 1.27 0.00 93 1008.1
20260507053045 6 0 0.0 0.0 0.00 1.27 0.00 93 1008.2
20260507051559 6 0 0.0 0.0 0.00 1.27 0.00 93 1007.9
20260507050048 7 0 0.0 3.2 0.00 1.27 0.00 93 1008.1
20260507044550 7 0 0.0 0.0 0.00 1.27 0.00 93 1007.7
20260507043045 7 0 0.0 0.0 0.00 1.27 0.00 93 1007.8
20260507041545 7 0 0.0 4.8 0.00 1.27 0.00 93 1007.6
20260507040046 7 0 0.0 1.6 0.00 1.27 0.00 93 1007.6
20260507034546 7 72 1.6 4.8 0.03 1.27 1.27 93 1007.5
20260507033047 7 86 0.0 4.8 0.03 1.27 1.27 93 1007.9
20260507031545 8 0 0.0 4.8 0.05 1.27 1.27 93 1007.8
20260507030049 8 0 1.6 4.8 0.05 1.27 1.27 92 1007.8
20260507024547 8 107 0.0 4.8 0.05 1.24 1.24 93 1008.0
20260507023045 8 69 0.0 6.4 0.08 1.24 1.24 92 1008.1
20260507021545 8 58 1.6 6.4 0.10 1.22 1.22 92 1008.1
20260507020101 8 101 0.0 4.8 0.15 1.22 1.22 92 1007.9
20260507014549 8 0 0.0 1.6 0.18 1.19 1.19 91 1007.8
20260507013045 9 0 0.0 1.6 0.23 1.17 1.17 91 1007.9
20260507011546 9 0 0.0 3.2 0.18 1.12 1.12 90 1007.8
20260507010058 10 0 0.0 3.2 0.13 1.07 1.07 90 1007.5
20260507004542 10 0 0.0 4.8 0.08 1.02 1.02 90 1007.3
20260507003045 11 0 0.0 4.8 0.03 0.94 0.94 90 1007.1
20260507001551 11 0 0.0 4.8 0.05 0.94 0.94 90 1006.7
20260507000048 11 0 0.0 1.6 0.10 0.94 0.94 90 1006.0
20260506234547 12 0 0.0 0.0 0.13 0.94 0.94 90 1005.7
20260506233046 12 94 0.0 1.6 0.15 0.91 0.91 89 1005.8
20260506231602 13 94 0.0 1.6 0.13 0.89 0.89 90 1005.5
20260506230109 13 94 0.0 4.8 0.08 0.84 0.84 90 1005.3
20260506224546 14 0 0.0 3.2 0.03 0.81 0.79 91 1005.0
20260506223045 15 0 0.0 4.8 0.00 0.79 0.76 92 1004.9
20260506221555 15 92 0.0 6.4 0.05 0.79 0.76 93 1004.6
20260506220100 15 0 0.0 3.2 0.28 0.79 0.76 94 1004.5
20260506214550 15 0 0.0 3.2 0.28 0.99 0.76 94 1004.3
20260506213103 15 360 0.0 4.8 0.28 0.99 0.76 94 1004.0
20260506211543 15 0 0.0 3.2 0.25 0.94 0.71 94 1004.1
20260506210054 15 355 0.0 3.2 0.03 0.71 0.48 94 1004.3
20260506204543 15 334 3.2 12.9 0.03 0.79 0.48 94 1004.3
20260506203039 15 0 0.0 6.4 0.05 0.79 0.48 94 1004.3
20260506201548 15 0 0.0 9.7 0.05 0.76 0.46 94 1004.4
20260506200043 15 0 1.6 14.5 0.10 0.76 0.46 94 1004.6
20260506194543 15 63 1.6 16.1 0.15 0.76 0.46 94 1004.6
20260506193044 15 138 1.6 8.0 0.15 0.74 0.43 94 1004.8
20260506191550 15 319 1.6 6.4 0.18 0.71 0.41 94 1005.1
20260506190045 15 0 3.2 6.4 0.18 0.66 0.36 94 1005.2
20260506184556 15 0 1.6 12.9 0.15 0.61 0.30 93 1005.4
20260506183045 15 98 3.2 12.9 0.18 0.58 0.28 93 1005.3
20260506181545 15 328 4.8 14.5 0.15 0.53 0.23 93 1005.6
20260506180041 15 15 4.8 20.9 0.15 0.48 0.18 93 1005.7
20260506174543 15 65 3.2 14.5 0.13 0.46 0.15 93 1005.9
20260506173050 15 134 1.6 6.4 0.10 0.41 0.10 92 1006.1
20260506171559 15 0 0.0 6.4 0.08 0.38 0.08 91 1006.2
20260506170057 15 296 0.0 4.8 0.03 0.33 0.03 91 1006.1
20260506164548 15 281 1.6 8.0 0.03 0.33 0.03 90 1006.5
20260506163043 15 258 3.2 8.0 0.00 0.30 0.00 89 1006.6
20260506161547 15 0 0.0 4.8 0.00 0.30 0.00 90 1006.5
20260506160059 15 0 0.0 3.2 0.00 0.30 0.00 90 1007.0
20260506154554 15 79 0.0 6.4 0.00 0.30 0.00 90 1007.4
20260506153048 14 0 0.0 3.2 0.00 0.30 0.00 91 1007.8
20260506151545 14 0 0.0 0.0 0.00 0.30 0.00 88 1008.0
20260506150053 15 0 0.0 0.0 0.00 0.30 0.00 89 1007.7